Weather History for EDDT - April, 2013

Change the Weather History Date:

Monday, April 22, 2013

  Actual Average Record
Temperature  
Mean Temperature 56 °F -  
Max Temperature 67 °F 63 °F 75 °F (2011)
Min Temperature 44 °F 45 °F 32 °F (2005)
Degree Days  
Heating Degree Days 10    
Growing Degree Days 6 (Base 50)    
Moisture  
Dew Point 38 °F    
Average Humidity 50    
Maximum Humidity 71    
Minimum Humidity 27    
Precipitation  
Precipitation 0.00 in - - ()
Sea Level Pressure  
Sea Level Pressure 29.97 in    
Wind  
Wind Speed 5 mph ()    
Max Wind Speed 13 mph    
Max Gust Speed -    
Visibility 16.0 miles    
Events      
Averages and records for this station are not official NWS values.
T = Trace of Precipitation, MM = Missing Value Source: Averaged Metar Reports

Daily Weather History Graph

Daily Weather History Graph

Search for Another Location

Airport or City:

Trip Planner

Search our weather history database for the weather conditions in past years. The results will help you decide how hot, cold, wet, or windy it might be!

Date:

Astronomy

Apr. 22, 2013 Rise Set
Actual Time 5:53 AM CEST 8:18 PM CEST
Civil Twilight 5:16 AM CEST 8:55 PM CEST
Nautical Twilight 4:28 AM CEST 9:43 PM CEST
Astronomical Twilight 3:31 AM CEST 10:41 PM CEST
Moon 4:23 PM CEST (4/22) 4:07 AM CEST (4/22)
Length of Visible Light 15h 39m
Length of Day
14h 24m
Waxing Gibbous, 86% of the Moon is Illuminated
Apr 22
Waxing Gibbous
Apr 25
Full
May 2
Last Quarter
May 10
New
May 18
First Quarter

Hourly Weather History & Observations

Time (CEST) Temp. Windchill Dew Point Humidity Pressure Visibility Wind Dir Wind Speed Gust Speed Precip Events Conditions
12:00 AM 53 °F - 35 °F 38% 30.02 in 25 mi East 6.7 mph - -   Scattered Clouds
12:20 AM 53.6 °F - 33.8 °F 47% 30.01 in - East 9.2 mph - N/A   Clear
12:50 AM 51.8 °F - 33.8 °F 50% 30.01 in - ENE 8.1 mph - N/A   Clear
1:00 AM 53 °F - 33 °F 35% 30.01 in 22 mi East 4.5 mph - -   Clear
1:20 AM 51.8 °F - 33.8 °F 50% 29.98 in - NE 4.6 mph - N/A   Clear
1:50 AM 50.0 °F - 33.8 °F 54% 29.98 in - NE 4.6 mph - N/A   Clear
2:00 AM 50 °F - 34 °F 42% 29.99 in 22 mi ENE 4.5 mph - -   Clear
2:20 AM 50.0 °F - 33.8 °F 54% 29.98 in - NNE 4.6 mph - N/A   Clear
2:50 AM 48.2 °F - 33.8 °F 58% 29.95 in - NE 3.5 mph - N/A   Clear
3:00 AM 49 °F - 34 °F 44% 29.98 in 22 mi ENE 4.5 mph - -   Scattered Clouds
3:20 AM 48.2 °F - 33.8 °F 58% 29.95 in - NNE 3.5 mph - N/A   Clear
3:50 AM 48.2 °F - 33.8 °F 58% 29.95 in - NNE 2.3 mph - N/A   Clear
4:00 AM 48 °F - 34 °F 47% 29.97 in 22 mi NE 4.5 mph - -   Scattered Clouds
4:20 AM 46.4 °F - 33.8 °F 62% 29.95 in - NNE 2.3 mph - N/A   Clear
4:50 AM 46.4 °F - 33.8 °F 62% 29.95 in - NNE 1.2 mph - N/A   Clear
5:00 AM 46 °F - 34 °F 51% 29.96 in 22 mi NE 2.2 mph - -   Scattered Clouds
5:20 AM 44.6 °F - 33.8 °F 66% 29.95 in - North 1.2 mph - N/A   Clear
5:50 AM 44.6 °F 43.1 °F 35.6 °F 71% 29.95 in - ENE 3.5 mph - N/A   Clear
6:00 AM 45 °F - 35 °F 58% 29.96 in 19 mi ENE 2.2 mph - -   Scattered Clouds
6:20 AM 46.4 °F 45.2 °F 35.6 °F 66% 29.95 in - NE 3.5 mph - N/A   Clear
6:50 AM 46.4 °F - 35.6 °F 66% 29.95 in - Variable 2.3 mph - N/A   Clear
7:00 AM 46 °F - 36 °F 58% 29.96 in 19 mi NE 2.2 mph - -   Mostly Cloudy
7:20 AM 48.2 °F - 37.4 °F 66% 29.95 in - ENE 2.3 mph - N/A   Clear
7:50 AM 50.0 °F - 37.4 °F 62% 29.95 in - Variable 2.3 mph - N/A   Clear
8:00 AM 49 °F - 37 °F 53% 29.97 in 16 mi ENE 2.2 mph - -   Partly Cloudy
8:20 AM 51.8 °F - 37.4 °F 58% 29.95 in - Variable 1.2 mph - N/A   Clear
8:50 AM 53.6 °F - 39.2 °F 58% 29.95 in - NNE 1.2 mph - N/A   Clear
9:00 AM 53 °F - 39 °F 47% 29.97 in 16 mi NNE 2.2 mph - -   Scattered Clouds
9:20 AM 55.4 °F - 39.2 °F 54% 29.95 in - SE 1.2 mph - N/A   Clear
9:50 AM 59.0 °F - 39.2 °F 48% 29.95 in - Calm Calm - N/A   Clear
10:00 AM 59 °F - 40 °F 38% 29.96 in 19 mi SSW 2.2 mph - -   Clear
10:20 AM 59.0 °F - 39.2 °F 48% 29.95 in - North 3.5 mph - N/A   Clear
10:50 AM 62.6 °F - 39.2 °F 42% 29.95 in - Variable 3.5 mph - N/A   Clear
11:00 AM 62 °F - 39 °F 31% 29.97 in 19 mi ENE 4.5 mph - -   Clear
11:20 AM 62.6 °F - 42.8 °F 48% 29.95 in - Variable 3.5 mph - N/A   Clear
11:50 AM 64.4 °F - 41.0 °F 42% 29.95 in - Variable 3.5 mph - N/A   Clear
12:00 PM 65 °F - 41 °F 30% 29.97 in 19 mi SW 4.5 mph - -   Clear
12:20 PM 64.4 °F - 39.2 °F 40% 29.95 in - Variable 3.5 mph - N/A   Clear
12:50 PM 66.2 °F - 41.0 °F 40% 29.95 in - West 6.9 mph - N/A   Clear
1:00 PM 66 °F - 41 °F 29% 29.96 in 19 mi West 6.7 mph - -   Clear
1:20 PM 66.2 °F - 39.2 °F 37% 29.95 in - West 9.2 mph - N/A   Clear
1:50 PM 66.2 °F - 39.2 °F 37% 29.95 in - WSW 8.1 mph - N/A   Clear
2:00 PM 66 °F - 40 °F 27% 29.96 in 16 mi WSW 8.9 mph - -   Partly Cloudy
2:20 PM 66.2 °F - 41.0 °F 40% 29.95 in - West 6.9 mph - N/A   Clear
2:50 PM 68.0 °F - 44.6 °F 43% 29.95 in - West 11.5 mph - N/A   Clear
3:00 PM 67 °F - 44 °F 31% 29.96 in 16 mi West 11.2 mph - -   Partly Cloudy
3:20 PM 66.2 °F - 42.8 °F 43% 29.95 in - West 12.7 mph - N/A   Clear
3:50 PM 62.6 °F - 42.8 °F 48% 29.95 in - WNW 12.7 mph - N/A   Clear
4:00 PM 63 °F - 44 °F 39% 29.97 in 16 mi WNW 13.4 mph - -   Partly Cloudy
4:20 PM 62.6 °F - 42.8 °F 48% 29.95 in - NW 12.7 mph - N/A   Clear
4:50 PM 60.8 °F - 44.6 °F 55% 29.95 in - NW 10.4 mph - N/A   Clear
5:00 PM 60 °F - 44 °F 43% 29.97 in 16 mi NW 11.2 mph - -   Partly Cloudy
5:20 PM 59.0 °F - 42.8 °F 55% 29.95 in - NW 11.5 mph - N/A   Clear
5:50 PM 59.0 °F - 42.8 °F 55% 29.98 in - NW 10.4 mph - N/A   Clear
6:00 PM 59 °F - 43 °F 45% 29.98 in 14 mi NW 11.2 mph - -   Partly Cloudy
6:20 PM 57.2 °F - 42.8 °F 59% 29.98 in - WNW 10.4 mph - N/A   Clear
6:50 PM 57.2 °F - 42.8 °F 59% 29.98 in - NW 6.9 mph - N/A   Clear
7:20 PM 57.2 °F - 39.2 °F 51% 29.98 in - WNW 8.1 mph - N/A   Clear
7:50 PM 55.4 °F - 39.2 °F 54% 29.98 in - WNW 8.1 mph - N/A   Clear
8:00 PM 56 °F - 40 °F 44% 30.00 in 12 mi WNW 8.9 mph - -   Partly Cloudy
8:20 PM 55.4 °F - 37.4 °F 51% 30.01 in - WNW 8.1 mph - N/A   Clear
8:50 PM 53.6 °F - 39.2 °F 58% 29.98 in - West 5.8 mph - N/A   Clear
9:00 PM 53 °F - 39 °F 47% 30.01 in 12 mi West 4.5 mph - -   Partly Cloudy
9:20 PM 51.8 °F - 39.2 °F 62% 30.01 in - WNW 4.6 mph - N/A   Clear
9:50 PM 51.8 °F - 39.2 °F 62% 30.01 in - WNW 4.6 mph - N/A   Clear
10:00 PM 52 °F - 39 °F 51% 30.03 in 12 mi WNW 4.5 mph - -   Partly Cloudy
10:20 PM 51.8 °F - 39.2 °F 62% 30.01 in - WNW 4.6 mph - N/A   Clear
10:50 PM 51.8 °F - 39.2 °F 62% 30.01 in - West 5.8 mph - N/A   Clear
11:00 PM 51 °F - 40 °F 55% 30.02 in 12 mi West 4.5 mph - -   Mostly Cloudy
11:20 PM 50.0 °F - 39.2 °F 66% 30.01 in - WNW 4.6 mph - N/A   Clear
11:50 PM 48.2 °F - 37.4 °F 66% 30.01 in - West 3.5 mph - N/A   Clear